Time,TemperatureF,DewpointF,PressureIn,WindDirection,WindDirectionDegrees,WindSpeedMPH,WindSpeedGustMPH,Humidity,HourlyPrecipIn,Conditions,Clouds,dailyrainin,SoftwareType,DateUTC
2013-02-04 00:14:00,48.5,45.0,30.10,WSW,248,0.0,0.0,89,0.00,,,0.00,weatherlink.com 1.10,2013-02-04 06:14:00,
2013-02-04 00:29:00,48.2,45.0,30.09,WSW,247,0.0,0.0,90,0.00,,,0.00,weatherlink.com 1.10,2013-02-04 06:29:00,
2013-02-04 00:44:00,47.8,45.0,30.09,WSW,248,0.0,0.0,90,0.00,,,0.00,weatherlink.com 1.10,2013-02-04 06:44:00,
2013-02-04 00:59:00,47.8,45.0,30.08,WSW,247,0.0,0.0,91,0.00,,,0.00,weatherlink.com 1.10,2013-02-04 06:59:00,
2013-02-04 01:14:00,47.8,45.0,30.08,NNW,340,2.0,2.0,91,0.00,,,0.00,weatherlink.com 1.10,2013-02-04 07:14:00,
2013-02-04 01:29:00,48.5,45.0,30.08,NW,304,0.0,0.0,89,0.00,,,0.00,weatherlink.com 1.10,2013-02-04 07:29:00,
2013-02-04 01:44:00,47.9,45.0,30.07,NW,304,0.0,0.0,90,0.00,,,0.00,weatherlink.com 1.10,2013-02-04 07:44:00,
2013-02-04 01:59:00,48.1,45.0,30.07,NW,304,0.0,0.0,90,0.00,,,0.00,weatherlink.com 1.10,2013-02-04 07:59:00,
2013-02-04 02:14:00,48.3,46.0,30.05,ENE,72,0.0,0.0,90,0.00,,,0.00,weatherlink.com 1.10,2013-02-04 08:14:00,
2013-02-04 02:29:00,49.0,46.0,30.05,East,79,0.0,0.0,89,0.00,,,0.00,weatherlink.com 1.10,2013-02-04 08:29:00,
2013-02-04 02:44:00,49.0,46.0,30.05,East,79,0.0,0.0,89,0.00,,,0.00,weatherlink.com 1.10,2013-02-04 08:44:00,
2013-02-04 02:59:00,49.2,46.0,30.05,East,79,0.0,0.0,89,0.00,,,0.00,weatherlink.com 1.10,2013-02-04 08:59:00,
2013-02-04 03:14:00,49.3,46.0,30.04,East,79,0.0,0.0,89,0.00,,,0.00,weatherlink.com 1.10,2013-02-04 09:14:00,
2013-02-04 03:29:00,49.3,46.0,30.04,East,79,0.0,0.0,89,0.00,,,0.00,weatherlink.com 1.10,2013-02-04 09:29:00,
2013-02-04 03:44:00,49.9,47.0,30.05,WSW,257,0.0,1.0,89,0.00,,,0.00,weatherlink.com 1.10,2013-02-04 09:44:00,
2013-02-04 03:59:00,49.8,47.0,30.04,NNW,328,0.0,0.0,89,0.00,,,0.00,weatherlink.com 1.10,2013-02-04 09:59:00,
2013-02-04 04:14:00,49.9,47.0,30.04,NNW,329,0.0,0.0,89,0.00,,,0.00,weatherlink.com 1.10,2013-02-04 10:14:00,
2013-02-04 04:29:00,49.7,47.0,30.03,NNW,329,0.0,0.0,90,0.00,,,0.00,weatherlink.com 1.10,2013-02-04 10:29:00,
2013-02-04 04:44:00,49.8,47.0,30.03,NNW,329,0.0,0.0,90,0.00,,,0.00,weatherlink.com 1.10,2013-02-04 10:44:00,
2013-02-04 04:59:00,49.9,47.0,30.02,NNW,329,0.0,0.0,90,0.00,,,0.00,weatherlink.com 1.10,2013-02-04 10:59:00,
2013-02-04 05:13:00,49.8,47.0,30.02,NNW,329,0.0,0.0,91,0.00,,,0.00,weatherlink.com 1.10,2013-02-04 11:13:00,
2013-02-04 05:28:00,50.0,47.0,30.03,North,350,0.0,1.0,91,0.00,,,0.00,weatherlink.com 1.10,2013-02-04 11:28:00,
2013-02-04 05:43:00,50.5,48.0,30.02,North,351,0.0,0.0,92,0.00,,,0.00,weatherlink.com 1.10,2013-02-04 11:43:00,
2013-02-04 05:58:00,50.9,48.0,30.02,North,349,0.0,0.0,91,0.00,,,0.00,weatherlink.com 1.10,2013-02-04 11:58:00,
2013-02-04 06:13:00,51.3,49.0,30.03,North,350,0.0,0.0,92,0.00,,,0.00,weatherlink.com 1.10,2013-02-04 12:13:00,
2013-02-04 06:28:00,51.4,49.0,30.03,North,350,0.0,0.0,91,0.00,,,0.00,weatherlink.com 1.10,2013-02-04 12:28:00,
2013-02-04 06:43:00,51.6,49.0,30.03,North,351,0.0,0.0,91,0.00,,,0.00,weatherlink.com 1.10,2013-02-04 12:43:00,
2013-02-04 06:58:00,52.1,50.0,30.03,North,350,0.0,0.0,91,0.00,,,0.00,weatherlink.com 1.10,2013-02-04 12:58:00,
2013-02-04 07:13:00,52.5,50.0,30.03,North,350,0.0,0.0,92,0.00,,,0.00,weatherlink.com 1.10,2013-02-04 13:13:00,
2013-02-04 07:28:00,52.6,50.0,30.03,North,350,0.0,0.0,91,0.00,,,0.00,weatherlink.com 1.10,2013-02-04 13:28:00,
2013-02-04 07:43:00,53.0,51.0,30.03,North,350,0.0,0.0,92,0.00,,,0.00,weatherlink.com 1.10,2013-02-04 13:43:00,
2013-02-04 07:59:00,54.8,52.0,30.03,ENE,60,0.0,0.0,89,0.00,,,0.00,weatherlink.com 1.10,2013-02-04 13:59:00,
2013-02-04 08:14:00,57.0,53.0,30.03,East,94,0.0,2.0,85,0.00,,,0.00,weatherlink.com 1.10,2013-02-04 14:14:00,
2013-02-04 08:29:00,58.1,53.0,30.03,SE,134,0.0,3.0,84,0.00,,,0.00,weatherlink.com 1.10,2013-02-04 14:29:00,
2013-02-04 08:44:00,58.8,54.0,30.03,ESE,110,0.0,3.0,83,0.00,,,0.00,weatherlink.com 1.10,2013-02-04 14:44:00,
2013-02-04 09:00:00,59.4,54.0,30.02,East,100,0.0,4.0,83,0.00,,,0.00,weatherlink.com 1.10,2013-02-04 15:00:00,
2013-02-04 09:15:00,60.2,55.0,30.03,SSE,150,2.0,5.0,82,0.00,,,0.00,weatherlink.com 1.10,2013-02-04 15:15:00,
2013-02-04 09:30:00,61.3,56.0,30.03,SW,225,2.0,7.0,82,0.00,,,0.00,weatherlink.com 1.10,2013-02-04 15:30:00,
2013-02-04 09:45:00,62.0,56.0,30.03,South,188,2.0,9.0,81,0.00,,,0.00,weatherlink.com 1.10,2013-02-04 15:45:00,
2013-02-04 10:00:00,62.7,56.0,30.03,SSE,153,8.0,11.0,80,0.00,,,0.00,weatherlink.com 1.10,2013-02-04 16:00:00,
2013-02-04 10:16:00,63.7,57.0,30.03,South,170,4.0,9.0,79,0.00,,,0.00,weatherlink.com 1.10,2013-02-04 16:16:00,
2013-02-04 10:31:00,65.1,57.0,30.03,SSE,165,2.0,8.0,76,0.00,,,0.00,weatherlink.com 1.10,2013-02-04 16:31:00,
2013-02-04 10:47:00,66.6,58.0,30.02,South,169,4.0,10.0,74,0.00,,,0.00,weatherlink.com 1.10,2013-02-04 16:47:00,
2013-02-04 11:02:00,66.1,58.0,30.01,SE,145,6.0,14.0,74,0.00,,,0.00,weatherlink.com 1.10,2013-02-04 17:02:00,
2013-02-04 11:17:00,66.5,58.0,30.01,SSW,210,4.0,12.0,73,0.00,,,0.00,weatherlink.com 1.10,2013-02-04 17:17:00,
2013-02-04 11:32:00,67.5,58.0,30.00,SE,128,1.0,9.0,72,0.00,,,0.00,weatherlink.com 1.10,2013-02-04 17:32:00,
2013-02-04 11:48:00,68.1,58.0,30.00,South,174,10.0,10.0,70,0.00,,,0.00,weatherlink.com 1.10,2013-02-04 17:48:00,
2013-02-04 12:03:00,67.9,58.0,29.99,South,173,6.0,11.0,71,0.00,,,0.00,weatherlink.com 1.10,2013-02-04 18:03:00,
2013-02-04 12:18:00,67.7,58.0,29.99,SE,142,5.0,9.0,72,0.00,,,0.00,weatherlink.com 1.10,2013-02-04 18:18:00,
2013-02-04 12:33:00,67.4,58.0,29.98,SSE,162,5.0,9.0,73,0.00,,,0.00,weatherlink.com 1.10,2013-02-04 18:33:00,
2013-02-04 12:48:00,66.4,59.0,29.97,SSE,155,2.0,7.0,78,0.00,,,0.00,weatherlink.com 1.10,2013-02-04 18:48:00,
2013-02-04 13:03:00,65.7,59.0,29.97,SSE,159,3.0,9.0,79,0.00,,,0.00,weatherlink.com 1.10,2013-02-04 19:03:00,
2013-02-04 13:18:00,64.8,60.0,29.95,SSE,157,0.0,3.0,83,0.00,,,0.00,weatherlink.com 1.10,2013-02-04 19:18:00,
2013-02-04 13:33:00,64.4,60.0,29.95,SSE,157,0.0,2.0,85,0.00,,,0.00,weatherlink.com 1.10,2013-02-04 19:33:00,
2013-02-04 13:49:00,64.4,60.0,29.94,ESE,115,0.0,1.0,86,0.01,,,0.01,weatherlink.com 1.10,2013-02-04 19:49:00,
2013-02-04 14:04:00,64.4,60.0,29.93,ESE,115,0.0,2.0,86,0.01,,,0.01,weatherlink.com 1.10,2013-02-04 20:04:00,
2013-02-04 14:19:00,64.2,60.0,29.93,ESE,106,3.0,4.0,86,0.01,,,0.01,weatherlink.com 1.10,2013-02-04 20:19:00,
2013-02-04 14:34:00,63.9,60.0,29.92,East,98,1.0,4.0,87,0.01,,,0.01,weatherlink.com 1.10,2013-02-04 20:34:00,
2013-02-04 14:49:00,63.6,60.0,29.91,East,88,5.0,7.0,87,0.00,,,0.01,weatherlink.com 1.10,2013-02-04 20:49:00,
2013-02-04 15:04:00,64.0,60.0,29.91,East,94,4.0,8.0,87,0.00,,,0.01,weatherlink.com 1.10,2013-02-04 21:04:00,
2013-02-04 15:20:00,64.3,60.0,29.90,East,84,4.0,8.0,85,0.00,,,0.01,weatherlink.com 1.10,2013-02-04 21:20:00,
2013-02-04 15:34:00,64.6,60.0,29.90,East,96,4.0,8.0,84,0.00,,,0.01,weatherlink.com 1.10,2013-02-04 21:34:00,
2013-02-04 15:49:00,64.6,60.0,29.90,ENE,77,2.0,8.0,84,0.00,,,0.01,weatherlink.com 1.10,2013-02-04 21:49:00,
2013-02-04 16:04:00,65.0,60.0,29.90,East,99,1.0,7.0,83,0.00,,,0.01,weatherlink.com 1.10,2013-02-04 22:04:00,
2013-02-04 16:19:00,65.2,59.0,29.90,SE,125,6.0,9.0,81,0.00,,,0.01,weatherlink.com 1.10,2013-02-04 22:19:00,
2013-02-04 16:34:00,65.3,59.0,29.90,East,85,5.0,8.0,80,0.00,,,0.01,weatherlink.com 1.10,2013-02-04 22:34:00,
2013-02-04 16:49:00,65.3,59.0,29.89,East,101,3.0,8.0,81,0.00,,,0.01,weatherlink.com 1.10,2013-02-04 22:49:00,
2013-02-04 17:04:00,65.3,59.0,29.89,ESE,115,0.0,7.0,81,0.00,,,0.01,weatherlink.com 1.10,2013-02-04 23:04:00,
2013-02-04 17:19:00,65.1,59.0,29.89,ENE,72,4.0,7.0,81,0.00,,,0.01,weatherlink.com 1.10,2013-02-04 23:19:00,
2013-02-04 17:34:00,64.8,59.0,29.89,ESE,122,4.0,6.0,81,0.00,,,0.01,weatherlink.com 1.10,2013-02-04 23:34:00,
2013-02-04 17:49:00,64.5,59.0,29.89,ENE,77,3.0,7.0,82,0.00,,,0.01,weatherlink.com 1.10,2013-02-04 23:49:00,
2013-02-04 18:04:00,64.3,59.0,29.89,East,98,1.0,5.0,82,0.00,,,0.01,weatherlink.com 1.10,2013-02-05 00:04:00,
2013-02-04 18:19:00,64.2,59.0,29.90,SE,128,1.0,8.0,82,0.00,,,0.01,weatherlink.com 1.10,2013-02-05 00:19:00,
2013-02-04 18:34:00,63.9,58.0,29.90,SE,142,1.0,6.0,82,0.00,,,0.01,weatherlink.com 1.10,2013-02-05 00:34:00,
2013-02-04 18:49:00,63.6,58.0,29.90,ENE,76,5.0,6.0,83,0.00,,,0.01,weatherlink.com 1.10,2013-02-05 00:49:00,
2013-02-04 19:04:00,63.3,58.0,29.91,SE,139,1.0,5.0,83,0.00,,,0.01,weatherlink.com 1.10,2013-02-05 01:04:00,
2013-02-04 19:19:00,63.2,58.0,29.91,ESE,108,0.0,5.0,84,0.00,,,0.01,weatherlink.com 1.10,2013-02-05 01:19:00,
2013-02-04 19:33:00,62.9,59.0,29.91,ENE,77,4.0,6.0,86,0.00,,,0.01,weatherlink.com 1.10,2013-02-05 01:33:00,
2013-02-04 19:48:00,62.5,59.0,29.91,SSE,162,0.0,7.0,88,0.00,,,0.01,weatherlink.com 1.10,2013-02-05 01:48:00,
2013-02-04 20:03:00,62.4,59.0,29.92,South,180,0.0,4.0,89,0.00,,,0.01,weatherlink.com 1.10,2013-02-05 02:03:00,
2013-02-04 20:18:00,62.1,59.0,29.92,SE,145,0.0,3.0,91,0.01,,,0.02,weatherlink.com 1.10,2013-02-05 02:18:00,
2013-02-04 20:33:00,61.9,60.0,29.92,East,94,2.0,7.0,93,0.01,,,0.02,weatherlink.com 1.10,2013-02-05 02:33:00,
2013-02-04 20:48:00,61.9,60.0,29.93,SE,129,1.0,6.0,94,0.01,,,0.02,weatherlink.com 1.10,2013-02-05 02:48:00,
2013-02-04 21:03:00,62.0,60.0,29.93,East,101,4.0,4.0,94,0.01,,,0.02,weatherlink.com 1.10,2013-02-05 03:03:00,
2013-02-04 21:18:00,62.2,61.0,29.93,ENE,78,2.0,4.0,95,0.00,,,0.02,weatherlink.com 1.10,2013-02-05 03:18:00,
2013-02-04 21:33:00,62.2,61.0,29.93,SE,138,2.0,5.0,95,0.00,,,0.02,weatherlink.com 1.10,2013-02-05 03:33:00,
2013-02-04 21:48:00,62.3,61.0,29.93,East,89,3.0,6.0,96,0.00,,,0.02,weatherlink.com 1.10,2013-02-05 03:48:00,
2013-02-04 22:03:00,62.2,61.0,29.93,East,87,2.0,4.0,96,0.00,,,0.03,weatherlink.com 1.10,2013-02-05 04:03:00,
2013-02-04 22:18:00,62.1,61.0,29.93,SE,127,1.0,6.0,96,0.01,,,0.03,weatherlink.com 1.10,2013-02-05 04:18:00,
2013-02-04 22:33:00,62.0,61.0,29.93,SE,144,2.0,4.0,96,0.01,,,0.03,weatherlink.com 1.10,2013-02-05 04:33:00,
2013-02-04 22:48:00,62.0,61.0,29.93,ESE,111,1.0,4.0,96,0.01,,,0.03,weatherlink.com 1.10,2013-02-05 04:48:00,
2013-02-04 23:03:00,61.9,61.0,29.93,SE,143,2.0,2.0,96,0.00,,,0.03,weatherlink.com 1.10,2013-02-05 05:03:00,
2013-02-04 23:18:00,61.7,61.0,29.93,SE,129,3.0,6.0,96,0.02,,,0.05,weatherlink.com 1.10,2013-02-05 05:18:00,
2013-02-04 23:33:00,61.5,60.0,29.93,ESE,122,4.0,5.0,96,0.06,,,0.09,weatherlink.com 1.10,2013-02-05 05:33:00,
2013-02-04 23:48:00,61.3,60.0,29.92,ESE,105,2.0,6.0,97,0.09,,,0.12,weatherlink.com 1.10,2013-02-05 05:48:00,